Huvudsida
METAR-TAF:

METAR-TAF

Flygplatser :

Rieti, Italien

latitud: 42-25N, longitud: 012-51E, höjd: 389 m

Aktuellt väderrapport

Denna rapport gjordes för 15 timmar och 37 minuter sedan, klockan 16:50 UTC
Vind 4 kt från nordväst
Temperatur 11°C
Fuktighet 54%
Tryck 1022 hPa
Sikt 10 km eller mer
Inga moln under 1 500 m eller inga cumulonimbus

METAR: LIQN 211650Z 32004KT CAVOK 11/02 Q1022

Tid: 09:27 (08:27 UTC)


TAF: saknas

Aktuella väderrapporter och prognoser från 4000 flygplatser (METAR- och TAF-rapporter).

De tillgängliga stationerna syns som gula och röda prickar på kartan.

För musen över prickarna för att se namnen på stationerna.

Klicka sedan för att få väderrapporter och prognoser.

För att ändra kartan: Klicka på de gröna knapparna med ett svart kors på för att zooma in; den gröna knappen med ett streck på för att zooma ut; eller på de gröna pilarna för angränsande kartor.


METAR-TAF: